Year,Month,Day,Hour,Minute,Value (Times are PST for temperature in C)
2011,02,28,00,00,2.20
2011,02,28,00,01,2.20
2011,02,28,00,02,2.20
2011,02,28,00,03,2.20
2011,02,28,00,04,2.20
2011,02,28,00,05,2.20
2011,02,28,00,06,2.20
2011,02,28,00,07,2.20
2011,02,28,00,08,2.20
2011,02,28,00,09,2.20
2011,02,28,00,10,2.20
2011,02,28,00,11,2.20
2011,02,28,00,12,2.20
2011,02,28,00,13,2.20
2011,02,28,00,14,2.10
2011,02,28,00,15,2.10
2011,02,28,00,16,2.10
2011,02,28,00,17,2.10
2011,02,28,00,18,2.10
2011,02,28,00,19,2.10
2011,02,28,00,20,2.10
2011,02,28,00,21,2.10
2011,02,28,00,22,2.10
2011,02,28,00,23,2.00
2011,02,28,00,24,2.00
2011,02,28,00,25,2.00
2011,02,28,00,26,2.00
2011,02,28,00,27,1.90
2011,02,28,00,28,1.90
2011,02,28,00,29,1.90
2011,02,28,00,30,1.90
2011,02,28,00,31,1.90
2011,02,28,00,32,1.90
2011,02,28,00,33,1.90
2011,02,28,00,34,1.80
2011,02,28,00,35,1.80
2011,02,28,00,36,1.80
2011,02,28,00,37,1.80
2011,02,28,00,38,1.80
2011,02,28,00,39,1.80
2011,02,28,00,40,1.80
2011,02,28,00,41,1.80
2011,02,28,00,42,1.80
2011,02,28,00,43,1.80
2011,02,28,00,44,1.80
2011,02,28,00,45,1.80
2011,02,28,00,46,1.70
2011,02,28,00,47,1.70
2011,02,28,00,48,1.70
2011,02,28,00,49,1.70
2011,02,28,00,50,1.70
2011,02,28,00,51,1.70
2011,02,28,00,52,1.70
2011,02,28,00,53,1.60
2011,02,28,00,54,1.60
2011,02,28,00,55,1.60
2011,02,28,00,56,1.50
2011,02,28,00,57,1.40
2011,02,28,00,58,1.30
2011,02,28,00,59,1.30
2011,02,28,01,00,1.30
2011,02,28,01,01,1.30
2011,02,28,01,02,1.30
2011,02,28,01,03,1.20
2011,02,28,01,04,1.20
2011,02,28,01,05,1.20
2011,02,28,01,06,1.20
2011,02,28,01,07,1.20
2011,02,28,01,08,1.20
2011,02,28,01,09,1.10
2011,02,28,01,10,1.10
2011,02,28,01,11,1.10
2011,02,28,01,12,1.10
2011,02,28,01,13,1.10
2011,02,28,01,14,1.10
2011,02,28,01,15,1.10
2011,02,28,01,16,1.10
2011,02,28,01,17,1.10
2011,02,28,01,18,1.00
2011,02,28,01,19,1.00
2011,02,28,01,20,1.00
2011,02,28,01,21,1.00
2011,02,28,01,22,0.90
2011,02,28,01,23,0.90
2011,02,28,01,24,0.90
2011,02,28,01,25,0.90
2011,02,28,01,26,0.90
2011,02,28,01,27,0.90
2011,02,28,01,28,1.00
2011,02,28,01,29,1.10
2011,02,28,01,30,1.10
2011,02,28,01,31,1.10
2011,02,28,01,32,1.10
2011,02,28,01,33,1.20
2011,02,28,01,34,1.20
2011,02,28,01,35,1.30
2011,02,28,01,36,1.30
2011,02,28,01,37,1.30
2011,02,28,01,38,1.30
2011,02,28,01,39,1.30
2011,02,28,01,40,1.30
2011,02,28,01,41,1.30
2011,02,28,01,42,1.30
2011,02,28,01,43,1.30
2011,02,28,01,44,1.30
2011,02,28,01,45,1.30
2011,02,28,01,46,1.30
2011,02,28,01,47,1.30
2011,02,28,01,48,1.30
2011,02,28,01,49,1.30
2011,02,28,01,50,1.30
2011,02,28,01,51,1.30
2011,02,28,01,52,1.30
2011,02,28,01,53,1.30
2011,02,28,01,54,1.30
2011,02,28,01,55,1.30
2011,02,28,01,56,1.30
2011,02,28,01,57,1.30
2011,02,28,01,58,1.30
2011,02,28,01,59,1.30
2011,02,28,02,00,1.30
2011,02,28,02,01,1.30
2011,02,28,02,02,1.40
2011,02,28,02,03,1.40
2011,02,28,02,04,1.40
2011,02,28,02,05,1.50
2011,02,28,02,06,1.50
2011,02,28,02,07,1.60
2011,02,28,02,08,1.60
2011,02,28,02,09,1.60
2011,02,28,02,10,1.60
2011,02,28,02,11,1.60
2011,02,28,02,12,1.60
2011,02,28,02,13,1.60
2011,02,28,02,14,1.60
2011,02,28,02,15,1.50
2011,02,28,02,16,1.50
2011,02,28,02,17,1.50
2011,02,28,02,18,1.50
2011,02,28,02,19,1.50
2011,02,28,02,20,1.60
2011,02,28,02,21,1.50
2011,02,28,02,22,1.50
2011,02,28,02,23,1.50
2011,02,28,02,24,1.50
2011,02,28,02,25,1.50
2011,02,28,02,26,1.50
2011,02,28,02,27,1.50
2011,02,28,02,28,1.40
2011,02,28,02,29,1.40
2011,02,28,02,30,1.40
2011,02,28,02,31,1.40
2011,02,28,02,32,1.30
2011,02,28,02,33,1.30
2011,02,28,02,34,1.30
2011,02,28,02,35,1.30
2011,02,28,02,36,1.30
2011,02,28,02,37,1.30
2011,02,28,02,38,1.30
2011,02,28,02,39,1.30
2011,02,28,02,40,1.30
2011,02,28,02,41,1.30
2011,02,28,02,42,1.30
2011,02,28,02,43,1.30
2011,02,28,02,44,1.30
2011,02,28,02,45,1.30
2011,02,28,02,46,1.30
2011,02,28,02,47,1.30
2011,02,28,02,48,1.30
2011,02,28,02,49,1.30
2011,02,28,02,50,1.30
2011,02,28,02,51,1.30
2011,02,28,02,52,1.30
2011,02,28,02,53,1.30
2011,02,28,02,54,1.20
2011,02,28,02,55,1.30
2011,02,28,02,56,1.20
2011,02,28,02,57,1.30
2011,02,28,02,58,1.30
2011,02,28,02,59,1.30
2011,02,28,03,00,1.30
2011,02,28,03,01,1.30
2011,02,28,03,02,1.30
2011,02,28,03,03,1.30
2011,02,28,03,04,1.30
2011,02,28,03,05,1.30
2011,02,28,03,06,1.30
2011,02,28,03,07,1.30
2011,02,28,03,08,1.30
2011,02,28,03,09,1.30
2011,02,28,03,10,1.30
2011,02,28,03,11,1.30
2011,02,28,03,12,1.30
2011,02,28,03,13,1.30
2011,02,28,03,14,1.30
2011,02,28,03,15,1.30
2011,02,28,03,16,1.30
2011,02,28,03,17,1.30
2011,02,28,03,18,1.30
2011,02,28,03,19,1.30
2011,02,28,03,20,1.30
2011,02,28,03,21,1.30
2011,02,28,03,22,1.30
2011,02,28,03,23,1.30
2011,02,28,03,24,1.30
2011,02,28,03,25,1.30
2011,02,28,03,26,1.30
2011,02,28,03,27,1.30
2011,02,28,03,28,1.30
2011,02,28,03,29,1.30
2011,02,28,03,30,1.30
2011,02,28,03,31,1.30
2011,02,28,03,32,1.30
2011,02,28,03,33,1.30
2011,02,28,03,34,1.30
2011,02,28,03,35,1.30
2011,02,28,03,36,1.30
2011,02,28,03,37,1.30
2011,02,28,03,38,1.30
2011,02,28,03,39,1.30
2011,02,28,03,40,1.30
2011,02,28,03,41,1.30
2011,02,28,03,42,1.30
2011,02,28,03,43,1.30
2011,02,28,03,44,1.30
2011,02,28,08,33,1.70
2011,02,28,08,34,1.70
2011,02,28,08,35,1.80
2011,02,28,08,36,1.80
2011,02,28,08,37,1.90
2011,02,28,08,38,1.90
2011,02,28,08,39,1.90
2011,02,28,08,40,1.90
2011,02,28,08,41,1.80
2011,02,28,08,42,1.80
2011,02,28,08,43,1.90
2011,02,28,08,44,1.90
2011,02,28,08,45,1.80
2011,02,28,08,46,1.80
2011,02,28,08,47,1.80
2011,02,28,08,48,1.80
2011,02,28,08,49,1.90
2011,02,28,08,50,1.80
2011,02,28,08,51,1.80
2011,02,28,08,52,1.80
2011,02,28,08,53,1.80
2011,02,28,08,54,1.90
2011,02,28,08,55,2.00
2011,02,28,08,56,2.10
2011,02,28,08,57,2.20
2011,02,28,08,58,2.30
2011,02,28,08,59,2.30
2011,02,28,09,00,2.40
2011,02,28,09,01,2.50
2011,02,28,09,02,2.50
2011,02,28,09,03,2.60
2011,02,28,09,04,2.60
2011,02,28,09,05,2.70
2011,02,28,09,06,2.70
2011,02,28,09,07,2.70
2011,02,28,09,08,2.70
2011,02,28,09,09,2.80
2011,02,28,09,10,2.80
2011,02,28,09,11,2.80
2011,02,28,09,12,2.80
2011,02,28,09,13,2.80
2011,02,28,09,14,2.70
2011,02,28,09,15,2.70
2011,02,28,09,16,2.70
2011,02,28,09,17,2.60
2011,02,28,09,18,2.60
2011,02,28,09,19,2.60
2011,02,28,09,20,2.60
2011,02,28,09,21,2.70
2011,02,28,09,22,2.70
2011,02,28,09,23,2.70
2011,02,28,09,24,2.70
2011,02,28,09,25,2.70
2011,02,28,09,26,2.70
2011,02,28,09,27,2.70
2011,02,28,09,28,2.70
2011,02,28,09,29,2.70
2011,02,28,09,30,2.70
2011,02,28,09,31,2.60
2011,02,28,09,32,2.50
2011,02,28,09,33,2.40
2011,02,28,09,34,2.30
2011,02,28,09,35,2.20
2011,02,28,09,36,2.20
2011,02,28,09,37,2.10
2011,02,28,09,38,2.00
2011,02,28,09,39,2.00
2011,02,28,09,40,1.90
2011,02,28,09,41,1.90
2011,02,28,09,42,1.90
2011,02,28,09,43,1.90
2011,02,28,09,44,2.00
2011,02,28,09,45,2.00
2011,02,28,09,46,2.10
2011,02,28,09,47,2.20
2011,02,28,09,48,2.30
2011,02,28,09,49,2.30
2011,02,28,09,50,2.50
2011,02,28,09,51,2.60
2011,02,28,09,52,2.70
2011,02,28,09,53,2.80
2011,02,28,09,54,2.90
2011,02,28,09,55,3.10
2011,02,28,09,56,3.20
2011,02,28,09,57,3.30
2011,02,28,09,58,3.30
2011,02,28,09,59,3.40
2011,02,28,10,00,3.50
2011,02,28,10,01,3.60
2011,02,28,10,02,3.60
2011,02,28,10,03,3.70
2011,02,28,10,04,3.80
2011,02,28,10,05,3.80
2011,02,28,10,06,3.90
2011,02,28,10,07,3.90
2011,02,28,10,08,3.90
2011,02,28,10,09,4.00
2011,02,28,10,10,4.10
2011,02,28,10,11,4.20
2011,02,28,10,12,4.30
2011,02,28,10,13,4.30
2011,02,28,10,14,4.30
2011,02,28,10,15,4.40
2011,02,28,10,16,4.30
2011,02,28,10,17,4.30
2011,02,28,10,18,4.30
2011,02,28,10,19,4.30
2011,02,28,10,20,4.30
2011,02,28,10,21,4.30
2011,02,28,10,22,4.30
2011,02,28,10,23,4.30
2011,02,28,10,24,4.30
2011,02,28,10,25,4.30
2011,02,28,10,26,4.30
2011,02,28,10,27,4.30
2011,02,28,10,28,4.30
2011,02,28,10,29,4.30
2011,02,28,10,30,4.30
2011,02,28,10,31,4.40
2011,02,28,10,32,4.40
2011,02,28,10,33,4.50
2011,02,28,10,34,4.50
2011,02,28,10,35,4.60
2011,02,28,10,36,4.60
2011,02,28,10,37,4.60
2011,02,28,10,38,4.60
2011,02,28,10,39,4.60
2011,02,28,10,40,4.60
2011,02,28,10,41,4.70
2011,02,28,10,42,4.60
2011,02,28,10,43,4.60
2011,02,28,10,44,4.60
2011,02,28,10,45,4.60
2011,02,28,10,46,4.60
2011,02,28,10,47,4.60
2011,02,28,10,48,4.60
2011,02,28,10,49,4.50
2011,02,28,10,50,4.50
2011,02,28,10,51,4.60
2011,02,28,10,52,4.60
2011,02,28,10,53,4.60
2011,02,28,10,54,4.60
2011,02,28,10,55,4.70
2011,02,28,10,56,4.70
2011,02,28,10,57,4.60
2011,02,28,10,58,4.40
2011,02,28,10,59,4.30
2011,02,28,11,00,4.30
2011,02,28,11,01,4.40
2011,02,28,11,02,4.40
2011,02,28,11,03,4.40
2011,02,28,11,04,4.50
2011,02,28,11,05,4.50
2011,02,28,11,06,4.50
2011,02,28,11,07,4.50
2011,02,28,11,08,4.60
2011,02,28,11,09,4.70
2011,02,28,11,10,4.70
2011,02,28,11,11,4.80
2011,02,28,11,12,5.00
2011,02,28,11,13,5.00
2011,02,28,11,14,5.10
2011,02,28,11,15,5.20
2011,02,28,11,16,5.20
2011,02,28,11,17,5.20
2011,02,28,11,18,5.20
2011,02,28,11,19,5.30
2011,02,28,11,20,5.40
2011,02,28,11,21,5.50
2011,02,28,11,22,5.60
2011,02,28,11,23,5.60
2011,02,28,11,24,5.60
2011,02,28,11,25,5.50
2011,02,28,11,26,5.40
2011,02,28,11,27,5.30
2011,02,28,11,28,5.30
2011,02,28,11,29,5.30
2011,02,28,11,30,5.30
2011,02,28,11,31,5.30
2011,02,28,11,32,5.30
2011,02,28,11,33,5.30
2011,02,28,11,34,5.40
2011,02,28,11,35,5.40
2011,02,28,11,36,5.50
2011,02,28,11,37,5.50
2011,02,28,11,38,5.50
2011,02,28,11,39,5.50
2011,02,28,11,40,5.50
2011,02,28,11,41,5.50
2011,02,28,11,42,5.50
2011,02,28,11,43,5.40
2011,02,28,11,44,5.50
2011,02,28,11,45,5.50
2011,02,28,11,46,5.50
2011,02,28,11,47,5.50
2011,02,28,11,48,5.40
2011,02,28,11,49,5.40
2011,02,28,11,50,5.50
2011,02,28,11,51,5.50
2011,02,28,11,52,5.60
2011,02,28,11,53,5.70
2011,02,28,11,54,5.70
2011,02,28,11,55,5.80
2011,02,28,11,56,5.80
2011,02,28,11,57,5.80
2011,02,28,11,58,5.80
2011,02,28,11,59,5.80
2011,02,28,12,00,5.80
2011,02,28,12,01,5.70
2011,02,28,12,02,5.60
2011,02,28,12,03,5.60
2011,02,28,12,04,5.60
2011,02,28,12,05,5.50
2011,02,28,12,06,5.40
2011,02,28,12,07,5.40
2011,02,28,12,08,5.40
2011,02,28,12,09,5.40
2011,02,28,12,10,5.50
2011,02,28,12,11,5.60
2011,02,28,12,12,5.70
2011,02,28,12,13,5.70
2011,02,28,12,14,5.70
2011,02,28,12,15,5.70
2011,02,28,12,16,5.70
2011,02,28,12,17,5.60
2011,02,28,12,18,5.60
2011,02,28,12,19,5.60
2011,02,28,12,20,5.70
2011,02,28,12,21,5.80
2011,02,28,12,22,5.80
2011,02,28,12,23,5.70
2011,02,28,12,24,5.80
2011,02,28,12,25,5.80
2011,02,28,12,26,5.80
2011,02,28,12,27,5.90
2011,02,28,12,28,5.90
2011,02,28,12,29,5.90
2011,02,28,12,30,5.80
2011,02,28,12,31,5.80
2011,02,28,12,32,5.80
2011,02,28,12,33,5.90
2011,02,28,12,34,5.80
2011,02,28,12,35,5.80
2011,02,28,12,36,5.70
2011,02,28,12,37,5.60
2011,02,28,12,38,5.60
2011,02,28,12,39,5.60
2011,02,28,12,40,5.70
2011,02,28,12,41,5.60
2011,02,28,12,42,5.70
2011,02,28,12,43,5.70
2011,02,28,12,44,5.70
2011,02,28,12,45,5.70
2011,02,28,12,46,5.70
2011,02,28,12,47,5.70
2011,02,28,12,48,5.70
2011,02,28,12,49,5.80
2011,02,28,12,50,5.80
2011,02,28,12,51,5.80
2011,02,28,12,52,5.80
2011,02,28,12,53,5.80
2011,02,28,12,54,5.90
2011,02,28,12,55,5.90
2011,02,28,12,56,5.90
2011,02,28,12,57,5.90
2011,02,28,12,58,5.90
2011,02,28,12,59,5.90
2011,02,28,13,00,5.90
2011,02,28,13,01,5.90
2011,02,28,13,02,5.90
2011,02,28,13,03,5.90
2011,02,28,13,04,5.80
2011,02,28,13,05,5.70
2011,02,28,13,06,5.60
2011,02,28,13,07,5.50
2011,02,28,13,08,5.40
2011,02,28,13,09,5.30
2011,02,28,13,10,5.20
2011,02,28,13,11,5.20
2011,02,28,13,12,5.20
2011,02,28,13,13,5.10
2011,02,28,13,14,5.10
2011,02,28,13,15,5.10
2011,02,28,13,16,5.10
2011,02,28,13,17,5.00
2011,02,28,13,18,4.90
2011,02,28,13,19,4.80
2011,02,28,13,20,4.80
2011,02,28,13,21,4.70
2011,02,28,13,22,4.70
2011,02,28,13,23,4.80
2011,02,28,13,24,4.80
2011,02,28,13,25,4.90
2011,02,28,13,26,5.00
2011,02,28,13,27,5.10
2011,02,28,13,28,5.20
2011,02,28,13,29,5.20
2011,02,28,13,30,5.20
2011,02,28,13,31,5.20
2011,02,28,13,32,5.20
2011,02,28,13,33,5.20
2011,02,28,13,34,5.10
2011,02,28,13,35,5.10
2011,02,28,13,36,5.10
2011,02,28,13,37,5.10
2011,02,28,13,38,5.10
2011,02,28,13,39,5.10
2011,02,28,13,40,5.10
2011,02,28,13,41,5.10
2011,02,28,13,42,5.00
2011,02,28,13,43,5.00
2011,02,28,13,44,5.00
2011,02,28,13,45,5.00
2011,02,28,13,46,5.00
2011,02,28,13,47,5.10
2011,02,28,13,48,5.10
2011,02,28,13,49,5.20
2011,02,28,13,50,5.20
2011,02,28,13,51,5.20
2011,02,28,13,52,5.30
2011,02,28,13,53,5.30
2011,02,28,13,54,5.30
2011,02,28,13,55,5.40
2011,02,28,13,56,5.40
2011,02,28,13,57,5.30
2011,02,28,13,58,5.30
2011,02,28,13,59,5.20
2011,02,28,14,00,5.20
2011,02,28,14,01,5.20
2011,02,28,14,02,5.20
2011,02,28,14,03,5.30
2011,02,28,14,04,5.30
2011,02,28,14,05,5.30
2011,02,28,14,06,5.40
2011,02,28,14,07,5.40
2011,02,28,14,08,5.40
2011,02,28,14,09,5.40
2011,02,28,14,10,5.30
2011,02,28,14,11,5.30
2011,02,28,14,12,5.30
2011,02,28,14,13,5.30
2011,02,28,14,14,5.20
2011,02,28,14,15,5.20
2011,02,28,14,16,5.20
2011,02,28,14,17,5.20
2011,02,28,14,18,5.10
2011,02,28,14,19,5.10
2011,02,28,14,20,5.10
2011,02,28,14,21,5.10
2011,02,28,14,22,5.00
2011,02,28,14,23,5.00
2011,02,28,14,24,4.90
2011,02,28,14,25,4.90
2011,02,28,14,26,4.80
2011,02,28,14,27,4.80
2011,02,28,14,28,4.80
2011,02,28,14,29,4.70
2011,02,28,14,30,4.70
2011,02,28,14,31,4.70
2011,02,28,14,32,4.70
2011,02,28,14,33,4.60
2011,02,28,14,34,4.60
2011,02,28,14,35,4.60
2011,02,28,14,36,4.60
2011,02,28,14,37,4.60
2011,02,28,14,38,4.50
2011,02,28,14,39,4.50
2011,02,28,14,40,4.60
2011,02,28,14,41,4.60
2011,02,28,14,42,4.60
2011,02,28,14,43,4.50
2011,02,28,14,44,4.50
2011,02,28,14,45,4.60
2011,02,28,14,46,4.60
2011,02,28,14,47,4.60
2011,02,28,14,48,4.60
2011,02,28,14,49,4.60
2011,02,28,14,50,4.60
2011,02,28,14,51,4.60
2011,02,28,14,52,4.70
2011,02,28,14,53,4.70
2011,02,28,14,54,4.70
2011,02,28,14,55,4.70
2011,02,28,14,56,4.70
2011,02,28,14,57,4.80
2011,02,28,14,58,4.80
2011,02,28,14,59,4.80
2011,02,28,15,00,4.80
2011,02,28,15,01,4.80
2011,02,28,15,02,4.80
2011,02,28,15,03,4.80
2011,02,28,15,04,4.80
2011,02,28,15,05,4.80
2011,02,28,15,06,4.80
2011,02,28,15,07,4.80
2011,02,28,15,08,4.80
2011,02,28,15,09,4.80
2011,02,28,15,10,4.80
2011,02,28,15,11,4.80
2011,02,28,15,12,4.80
2011,02,28,15,13,4.80
2011,02,28,15,14,4.80
2011,02,28,15,15,4.80
2011,02,28,15,16,4.70
2011,02,28,15,17,4.70
2011,02,28,15,18,4.70
2011,02,28,15,19,4.70
2011,02,28,15,20,4.70
2011,02,28,15,21,4.70
2011,02,28,15,22,4.70
2011,02,28,15,23,4.70
2011,02,28,15,24,4.60
2011,02,28,15,25,4.60
2011,02,28,15,26,4.50
2011,02,28,15,27,4.50
2011,02,28,15,28,4.40
2011,02,28,15,29,4.30
2011,02,28,15,30,4.20
2011,02,28,15,31,4.10
2011,02,28,15,32,4.10
2011,02,28,15,33,4.00
2011,02,28,15,34,3.90
2011,02,28,15,35,3.70
2011,02,28,15,36,3.50
2011,02,28,15,37,3.30
2011,02,28,15,38,3.20
2011,02,28,15,39,3.00
2011,02,28,15,40,2.90
2011,02,28,15,41,2.70
2011,02,28,15,42,2.50
2011,02,28,15,43,2.40
2011,02,28,15,44,2.20
2011,02,28,15,45,2.10
2011,02,28,15,46,2.00
2011,02,28,15,47,1.90
2011,02,28,15,48,1.80
2011,02,28,15,49,1.80
2011,02,28,15,50,1.80
2011,02,28,15,51,1.70
2011,02,28,15,52,1.70
2011,02,28,15,53,1.70
2011,02,28,15,54,1.80
2011,02,28,15,55,1.80
2011,02,28,15,56,1.80
2011,02,28,15,57,1.80
2011,02,28,15,58,1.80
2011,02,28,15,59,1.90
2011,02,28,16,00,1.90
2011,02,28,16,01,1.90
2011,02,28,16,02,1.90
2011,02,28,16,03,2.00
2011,02,28,16,04,2.00
2011,02,28,16,05,2.10
2011,02,28,16,06,2.10
2011,02,28,16,07,2.10
2011,02,28,16,08,2.10
2011,02,28,16,09,2.20
2011,02,28,16,10,2.20
2011,02,28,16,11,2.20
2011,02,28,16,12,2.20
2011,02,28,16,13,2.20
2011,02,28,16,14,2.20
2011,02,28,16,15,2.20
2011,02,28,16,16,2.20
2011,02,28,16,17,2.20
2011,02,28,16,18,2.20
2011,02,28,16,19,2.20
2011,02,28,16,20,2.20
2011,02,28,16,21,2.20
2011,02,28,16,22,2.20
2011,02,28,16,23,2.20
2011,02,28,16,24,2.20
2011,02,28,16,25,2.20
2011,02,28,16,26,2.20
2011,02,28,16,27,2.20
2011,02,28,16,28,2.20
2011,02,28,16,29,2.10
2011,02,28,16,30,2.10
2011,02,28,16,31,2.10
2011,02,28,16,32,2.00
2011,02,28,16,33,1.90
2011,02,28,16,34,1.90
2011,02,28,16,35,1.80
2011,02,28,16,36,1.80
2011,02,28,16,37,1.80
2011,02,28,16,38,1.80
2011,02,28,16,39,1.80
2011,02,28,16,40,1.80
2011,02,28,16,41,1.80
2011,02,28,16,42,1.80
2011,02,28,16,43,1.80
2011,02,28,16,44,1.80
2011,02,28,16,45,1.80
2011,02,28,16,46,1.80
2011,02,28,16,47,1.80
2011,02,28,16,48,1.80
2011,02,28,16,49,1.80
2011,02,28,16,50,1.80
2011,02,28,16,51,1.80
2011,02,28,16,52,1.80
2011,02,28,16,53,1.80
2011,02,28,16,54,1.80
2011,02,28,16,55,1.70
2011,02,28,16,56,1.70
2011,02,28,16,57,1.70
2011,02,28,16,58,1.80
2011,02,28,16,59,1.80
2011,02,28,17,00,1.80
2011,02,28,17,01,1.80
2011,02,28,17,02,1.80
2011,02,28,17,03,1.80
2011,02,28,17,04,1.80
2011,02,28,17,05,1.80
2011,02,28,17,06,1.80
2011,02,28,17,07,1.80
2011,02,28,17,08,1.80
2011,02,28,17,09,1.80
2011,02,28,17,10,1.80
2011,02,28,17,11,1.80
2011,02,28,17,12,1.80
2011,02,28,17,13,1.80
2011,02,28,17,14,1.80
2011,02,28,17,15,1.80
2011,02,28,17,16,1.80
2011,02,28,17,17,1.80
2011,02,28,17,18,1.80
2011,02,28,17,19,1.80
2011,02,28,17,20,1.80
2011,02,28,17,21,1.80
2011,02,28,17,22,1.80
2011,02,28,17,23,1.80
2011,02,28,17,24,1.80
2011,02,28,17,25,1.80
2011,02,28,17,26,1.80
2011,02,28,17,27,1.80
2011,02,28,17,28,1.80
2011,02,28,17,29,1.70
2011,02,28,17,30,1.70
2011,02,28,17,31,1.70
2011,02,28,17,32,1.70
2011,02,28,17,33,1.70
2011,02,28,17,34,1.70
2011,02,28,17,35,1.60
2011,02,28,17,36,1.60
2011,02,28,17,37,1.60
2011,02,28,17,38,1.60
2011,02,28,17,39,1.50
2011,02,28,17,40,1.40
2011,02,28,17,41,1.30
2011,02,28,17,42,1.30
2011,02,28,17,43,1.30
2011,02,28,17,44,1.30
2011,02,28,17,45,1.30
2011,02,28,17,46,1.30
2011,02,28,17,47,1.30
2011,02,28,17,48,1.30
2011,02,28,17,49,1.30
2011,02,28,17,50,1.30
2011,02,28,17,51,1.30
2011,02,28,17,52,1.20
2011,02,28,17,53,1.20
2011,02,28,17,54,1.20
2011,02,28,17,55,1.20
2011,02,28,17,56,1.20
2011,02,28,17,57,1.10
2011,02,28,17,58,1.10
2011,02,28,17,59,1.10
2011,02,28,18,00,1.10
2011,02,28,18,01,1.10
2011,02,28,18,02,1.10
2011,02,28,18,03,1.10
2011,02,28,18,04,1.00
2011,02,28,18,05,1.00
2011,02,28,18,06,1.00
2011,02,28,18,07,1.00
2011,02,28,18,08,1.00
2011,02,28,18,09,1.00
2011,02,28,18,10,1.00
2011,02,28,18,11,1.00
2011,02,28,18,12,1.10
2011,02,28,18,13,1.10
2011,02,28,18,14,1.10
2011,02,28,18,15,1.10
2011,02,28,18,16,1.10
2011,02,28,18,17,1.10
2011,02,28,18,18,1.20
2011,02,28,18,19,1.20
2011,02,28,18,20,1.30
2011,02,28,18,21,1.30
2011,02,28,18,22,1.30
2011,02,28,18,23,1.30
2011,02,28,18,24,1.30
2011,02,28,18,25,1.30
2011,02,28,18,26,1.30
2011,02,28,18,27,1.30
2011,02,28,18,28,1.30
2011,02,28,18,29,1.30
2011,02,28,18,30,1.30
2011,02,28,18,31,1.30
2011,02,28,18,32,1.30
2011,02,28,18,33,1.30
2011,02,28,18,34,1.30
2011,02,28,18,35,1.30
2011,02,28,18,36,1.30
2011,02,28,18,37,1.30
2011,02,28,18,38,1.30
2011,02,28,18,39,1.30
2011,02,28,18,40,1.30
2011,02,28,18,41,1.30
2011,02,28,18,42,1.30
2011,02,28,18,43,1.30
2011,02,28,18,44,1.30
2011,02,28,18,45,1.30
2011,02,28,18,46,1.30
2011,02,28,18,47,1.30
2011,02,28,18,48,1.30
2011,02,28,18,49,1.30
2011,02,28,18,50,1.30
2011,02,28,18,51,1.30
2011,02,28,18,52,1.30
2011,02,28,18,53,1.20
2011,02,28,18,54,1.20
2011,02,28,18,55,1.20
2011,02,28,18,56,1.20
2011,02,28,18,57,1.10
2011,02,28,18,58,1.10
2011,02,28,18,59,1.10
2011,02,28,19,00,1.10
2011,02,28,19,01,1.00
2011,02,28,19,02,1.00
2011,02,28,19,03,0.90
2011,02,28,19,04,0.90
2011,02,28,19,05,0.90
2011,02,28,19,06,0.80
2011,02,28,19,07,0.80
2011,02,28,19,08,0.80
2011,02,28,19,09,0.80
2011,02,28,19,10,0.80
2011,02,28,19,11,0.80
2011,02,28,19,12,0.80
2011,02,28,19,13,0.70
2011,02,28,19,14,0.70
2011,02,28,19,15,0.70
2011,02,28,19,16,0.70
2011,02,28,19,17,0.70
2011,02,28,19,18,0.70
2011,02,28,19,19,0.70
2011,02,28,19,20,0.70
2011,02,28,19,21,0.70
2011,02,28,19,22,0.70
2011,02,28,19,23,0.70
2011,02,28,19,24,0.70
2011,02,28,19,25,0.70
2011,02,28,19,26,0.70
2011,02,28,19,27,0.70
2011,02,28,19,28,0.70
2011,02,28,19,29,0.70
2011,02,28,19,30,0.70
2011,02,28,19,31,0.70
2011,02,28,19,32,0.70
2011,02,28,19,33,0.70
2011,02,28,19,34,0.70
2011,02,28,19,35,0.70
2011,02,28,19,36,0.70
2011,02,28,19,37,0.70
2011,02,28,19,38,0.70
2011,02,28,19,39,0.60
2011,02,28,19,40,0.60
2011,02,28,19,41,0.60
2011,02,28,19,42,0.60
2011,02,28,19,43,0.70
2011,02,28,19,44,0.70
2011,02,28,19,45,0.70
2011,02,28,19,46,0.70
2011,02,28,19,47,0.70
2011,02,28,19,48,0.70
2011,02,28,19,49,0.70
2011,02,28,19,50,0.70
2011,02,28,19,51,0.70
2011,02,28,19,52,0.70
2011,02,28,19,53,0.70
2011,02,28,19,54,0.70
2011,02,28,19,55,0.70
2011,02,28,19,56,0.70
2011,02,28,19,57,0.70
2011,02,28,19,58,0.70
2011,02,28,19,59,0.70
2011,02,28,20,00,0.70
2011,02,28,20,01,0.70
2011,02,28,20,02,0.70
2011,02,28,20,03,0.70
2011,02,28,20,04,0.80
2011,02,28,20,05,0.80
2011,02,28,20,06,0.80
2011,02,28,20,07,0.80
2011,02,28,20,08,0.80
2011,02,28,20,09,0.80
2011,02,28,20,10,0.80
2011,02,28,20,11,0.80
2011,02,28,20,12,0.80
2011,02,28,20,13,0.80
2011,02,28,20,14,0.80
2011,02,28,20,15,0.80
2011,02,28,20,16,0.80
2011,02,28,20,17,0.80
2011,02,28,20,18,0.80
2011,02,28,20,19,0.80
2011,02,28,20,20,0.80
2011,02,28,20,21,0.70
2011,02,28,20,22,0.70
2011,02,28,20,23,0.70
2011,02,28,20,24,0.70
2011,02,28,20,25,0.70
2011,02,28,20,26,0.70
2011,02,28,20,27,0.60
2011,02,28,20,28,0.60
2011,02,28,20,29,0.60
2011,02,28,20,30,0.60
2011,02,28,20,31,0.60
2011,02,28,20,32,0.60
2011,02,28,20,33,0.60
2011,02,28,20,34,0.60
2011,02,28,20,35,0.60
2011,02,28,20,36,0.60
2011,02,28,20,37,0.60
2011,02,28,20,38,0.60
2011,02,28,20,39,0.60
2011,02,28,20,40,0.60
2011,02,28,20,41,0.60
2011,02,28,20,42,0.60
2011,02,28,20,43,0.60
2011,02,28,20,44,0.60
2011,02,28,20,45,0.60
2011,02,28,20,46,0.60
2011,02,28,20,47,0.60
2011,02,28,20,48,0.60
2011,02,28,20,49,0.60
2011,02,28,20,50,0.60
2011,02,28,20,51,0.60
2011,02,28,20,52,0.50
2011,02,28,20,53,0.50
2011,02,28,20,54,0.50
2011,02,28,20,55,0.50
2011,02,28,20,56,0.50
2011,02,28,20,57,0.40
2011,02,28,20,58,0.40
2011,02,28,20,59,0.40
2011,02,28,21,00,0.40
2011,02,28,21,01,0.40
2011,02,28,21,02,0.40
2011,02,28,21,03,0.40
2011,02,28,21,04,0.40
2011,02,28,21,05,0.40
2011,02,28,21,06,0.40
2011,02,28,21,07,0.40
2011,02,28,21,08,0.40
2011,02,28,21,09,0.30
2011,02,28,21,10,0.30
2011,02,28,21,11,0.30
2011,02,28,21,12,0.30
2011,02,28,21,13,0.30
2011,02,28,21,14,0.30
2011,02,28,21,15,0.20
2011,02,28,21,16,0.20
2011,02,28,21,17,0.20
2011,02,28,21,18,0.20
2011,02,28,21,19,0.20
2011,02,28,21,20,0.20
2011,02,28,21,21,0.10
2011,02,28,21,22,0.10
2011,02,28,21,23,0.10
2011,02,28,21,24,0.10
2011,02,28,21,25,0.10
2011,02,28,21,26,0.10
2011,02,28,21,27,0.00
2011,02,28,21,28,0.00
2011,02,28,21,29,0.00
2011,02,28,21,30,0.00
2011,02,28,21,31,0.00
2011,02,28,21,32,0.00
2011,02,28,21,33,0.00
2011,02,28,21,34,-0.10
2011,02,28,21,35,-0.10
2011,02,28,21,36,-0.10
2011,02,28,21,37,-0.10
2011,02,28,21,38,-0.10
2011,02,28,21,39,-0.10
2011,02,28,21,40,-0.10
2011,02,28,21,41,-0.10
2011,02,28,21,42,-0.10
2011,02,28,21,43,-0.10
2011,02,28,21,44,-0.10
2011,02,28,21,45,-0.10
2011,02,28,21,46,-0.10
2011,02,28,21,47,-0.10
2011,02,28,21,48,-0.10
2011,02,28,21,49,-0.10
2011,02,28,21,50,-0.10
2011,02,28,21,51,-0.10
2011,02,28,21,52,-0.10
2011,02,28,21,53,-0.10
2011,02,28,21,54,-0.20
2011,02,28,21,55,-0.20
2011,02,28,21,56,-0.20
2011,02,28,21,57,-0.20
2011,02,28,21,58,-0.20
2011,02,28,21,59,-0.20
2011,02,28,22,00,-0.20
2011,02,28,22,01,-0.20
2011,02,28,22,02,-0.20
2011,02,28,22,03,-0.20
2011,02,28,22,04,-0.20
2011,02,28,22,05,-0.20
2011,02,28,22,06,-0.30
2011,02,28,22,07,-0.30
2011,02,28,22,08,-0.30
2011,02,28,22,09,-0.30
2011,02,28,22,10,-0.30
2011,02,28,22,11,-0.30
2011,02,28,22,12,-0.30
2011,02,28,22,13,-0.30
2011,02,28,22,14,-0.30
2011,02,28,22,15,-0.30
2011,02,28,22,16,-0.30
2011,02,28,22,17,-0.30
2011,02,28,22,18,-0.30
2011,02,28,22,19,-0.30
2011,02,28,22,20,-0.30
2011,02,28,22,21,-0.30
2011,02,28,22,22,-0.30
2011,02,28,22,23,-0.30
2011,02,28,22,24,-0.30
2011,02,28,22,25,-0.30
2011,02,28,22,26,-0.30
2011,02,28,22,27,-0.30
2011,02,28,22,28,-0.30
2011,02,28,22,29,-0.30
2011,02,28,22,30,-0.30
2011,02,28,22,31,-0.30
2011,02,28,22,32,-0.30
2011,02,28,22,33,-0.30
2011,02,28,22,34,-0.30
2011,02,28,22,35,-0.30
2011,02,28,22,36,-0.30
2011,02,28,22,37,-0.30
2011,02,28,22,38,-0.30
2011,02,28,22,39,-0.30
2011,02,28,22,40,-0.30
2011,02,28,22,41,-0.20
2011,02,28,22,42,-0.10
2011,02,28,22,43,-0.10
2011,02,28,22,44,-0.10
2011,02,28,22,45,0.00
2011,02,28,22,46,0.00
2011,02,28,22,47,0.00
2011,02,28,22,48,0.00
2011,02,28,22,49,0.00
2011,02,28,22,50,0.00
2011,02,28,22,51,0.00